Location: New Plymouth
(39.0670°S, 174.0830°E)
Time: 16:51:51
(UTC+13:00)

Cosmos 2263 Rocket - Pass Details

Date: 24 January 2019
Orbit: 824 x 848 km, 71.0° (Epoch: 20 February)

Event Time Altitude Azimuth Distance (km) Brightness Sun altitude
Rises 23:20:52 0° 217° (SW) 3,411 6.8 -23.7°
Reaches altitude 10° 23:23:44 10° 230° (SW) 2,473 5.6 -24.0°
Maximum altitude 23:28:11 24° 281° (WNW) 1,680 3.9 -24.5°
Enters shadow 23:30:47 18° 318° (NW) 1,984 4.0 -24.8°
